Time,TemperatureF,DewpointF,PressureIn,WindDirection,WindDirectionDegrees,WindSpeedMPH,WindSpeedGustMPH,Humidity,HourlyPrecipIn,Conditions,Clouds,dailyrainin,SoftwareType,DateUTC
2013-01-24 00:00:00,10.1,-4.1,30.13,NNW,336,0.0,7.0,52,0.00,,,0.00,Wunderground v.1.15,2013-01-24 05:00:00,
2013-01-24 00:02:00,10.1,-3.3,30.13,NNW,330,0.0,7.0,54,0.00,,,0.00,Wunderground v.1.15,2013-01-24 05:02:00,
2013-01-24 00:06:00,10.0,-3.8,30.13,NNW,337,0.0,7.0,53,0.00,,,0.00,Wunderground v.1.15,2013-01-24 05:06:00,
2013-01-24 00:08:00,9.9,-3.8,30.13,North,4,1.0,7.0,53,0.00,,,0.00,Wunderground v.1.15,2013-01-24 05:08:00,
2013-01-24 00:14:00,9.8,-3.9,30.13,North,354,1.0,7.0,53,0.00,,,0.00,Wunderground v.1.15,2013-01-24 05:14:00,
2013-01-24 00:20:00,9.8,-4.3,30.13,NNW,337,1.0,1.0,52,0.00,,,0.00,Wunderground v.1.15,2013-01-24 05:20:00,
2013-01-24 00:26:00,9.6,-4.5,30.12,NNW,340,1.0,6.0,52,0.00,,,0.00,Wunderground v.1.15,2013-01-24 05:26:00,
2013-01-24 00:32:00,9.6,-4.5,30.12,North,354,1.0,6.0,52,0.00,,,0.00,Wunderground v.1.15,2013-01-24 05:32:00,
2013-01-24 00:38:00,9.5,-4.6,30.13,NNE,23,1.0,6.0,52,0.00,,,0.00,Wunderground v.1.15,2013-01-24 05:38:00,
2013-01-24 00:44:00,9.3,-4.8,30.13,NNE,31,1.0,6.0,52,0.00,,,0.00,Wunderground v.1.15,2013-01-24 05:44:00,
2013-01-24 00:50:00,9.2,-4.9,30.13,NE,37,1.0,1.0,52,0.00,,,0.00,Wunderground v.1.15,2013-01-24 05:50:00,
2013-01-24 00:56:00,9.1,-4.6,30.13,NNE,18,1.0,5.0,53,0.00,,,0.00,Wunderground v.1.15,2013-01-24 05:56:00,
2013-01-24 01:02:00,9.0,-5.1,30.13,NNE,21,1.0,5.0,52,0.00,,,0.00,Wunderground v.1.15,2013-01-24 06:02:00,
2013-01-24 01:08:00,9.0,-4.7,30.13,North,11,1.0,5.0,53,0.00,,,0.00,Wunderground v.1.15,2013-01-24 06:08:00,
2013-01-24 01:14:00,8.9,-5.2,30.13,NE,34,1.0,5.0,52,0.00,,,0.00,Wunderground v.1.15,2013-01-24 06:14:00,
2013-01-24 01:20:00,8.9,-5.2,30.13,NNE,25,2.0,5.0,52,0.00,,,0.00,Wunderground v.1.15,2013-01-24 06:20:00,
2013-01-24 01:26:00,8.9,-4.8,30.13,NE,46,2.0,6.0,53,0.00,,,0.00,Wunderground v.1.15,2013-01-24 06:26:00,
2013-01-24 01:32:00,8.8,-4.9,30.13,NNE,12,1.0,6.0,53,0.00,,,0.00,Wunderground v.1.15,2013-01-24 06:32:00,
2013-01-24 01:38:00,8.7,-5.0,30.13,NE,47,1.0,6.0,53,0.00,,,0.00,Wunderground v.1.15,2013-01-24 06:38:00,
2013-01-24 01:44:00,8.6,-5.1,30.12,NE,48,0.0,6.0,53,0.00,,,0.00,Wunderground v.1.15,2013-01-24 06:44:00,
2013-01-24 01:50:00,8.5,-4.8,30.12,NNE,16,1.0,6.0,54,0.00,,,0.00,Wunderground v.1.15,2013-01-24 06:50:00,
2013-01-24 01:56:00,8.5,-4.8,30.12,NNE,23,1.0,6.0,54,0.00,,,0.00,Wunderground v.1.15,2013-01-24 06:56:00,
2013-01-24 02:02:00,8.5,-4.8,30.12,NNE,33,1.0,6.0,54,0.00,,,0.00,Wunderground v.1.15,2013-01-24 07:02:00,
2013-01-24 02:08:00,8.4,-4.9,30.12,NNE,18,0.0,6.0,54,0.00,,,0.00,Wunderground v.1.15,2013-01-24 07:08:00,
2013-01-24 02:14:00,8.3,-5.0,30.12,NE,43,0.0,6.0,54,0.00,,,0.00,Wunderground v.1.15,2013-01-24 07:14:00,
2013-01-24 02:20:00,8.4,-4.5,30.12,NNE,21,0.0,6.0,55,0.00,,,0.00,Wunderground v.1.15,2013-01-24 07:20:00,
2013-01-24 02:26:00,8.2,-5.0,30.11,NE,50,1.0,6.0,54,0.00,,,0.00,Wunderground v.1.15,2013-01-24 07:26:00,
2013-01-24 02:32:00,8.2,-4.7,30.11,NE,52,1.0,4.0,55,0.00,,,0.00,Wunderground v.1.15,2013-01-24 07:32:00,
2013-01-24 02:38:00,8.1,-4.4,30.12,NNE,22,0.0,4.0,56,0.00,,,0.00,Wunderground v.1.15,2013-01-24 07:38:00,
2013-01-24 02:44:00,7.9,-4.6,30.11,NE,53,0.0,4.0,56,0.00,,,0.00,Wunderground v.1.15,2013-01-24 07:44:00,
2013-01-24 02:50:00,7.7,-4.0,30.11,NE,52,0.0,4.0,58,0.00,,,0.00,Wunderground v.1.15,2013-01-24 07:50:00,
2013-01-24 02:56:00,7.6,-3.4,30.10,NNE,33,0.0,5.0,60,0.00,,,0.00,Wunderground v.1.15,2013-01-24 07:56:00,
2013-01-24 03:02:00,7.5,-3.2,30.10,ENE,57,0.0,5.0,61,0.00,,,0.00,Wunderground v.1.15,2013-01-24 08:02:00,
2013-01-24 03:08:00,7.5,-2.8,30.10,NE,43,0.0,5.0,62,0.00,,,0.00,Wunderground v.1.15,2013-01-24 08:08:00,
2013-01-24 03:14:00,7.3,-3.0,30.10,NE,35,0.0,5.0,62,0.00,,,0.00,Wunderground v.1.15,2013-01-24 08:14:00,
2013-01-24 03:20:00,7.2,-2.8,30.10,NE,35,0.0,5.0,63,0.00,,,0.00,Wunderground v.1.15,2013-01-24 08:20:00,
2013-01-24 03:26:00,7.1,-2.9,30.09,NE,36,0.0,5.0,63,0.00,,,0.00,Wunderground v.1.15,2013-01-24 08:26:00,
2013-01-24 03:32:00,7.0,-3.0,30.10,NNE,27,0.0,3.0,63,0.00,,,0.00,Wunderground v.1.15,2013-01-24 08:32:00,
2013-01-24 03:38:00,7.0,-3.0,30.09,NNE,31,0.0,3.0,63,0.00,,,0.00,Wunderground v.1.15,2013-01-24 08:38:00,
2013-01-24 03:44:00,6.9,-3.1,30.09,ENE,71,0.0,3.0,63,0.00,,,0.00,Wunderground v.1.15,2013-01-24 08:44:00,
2013-01-24 03:50:00,6.8,-2.8,30.09,NE,53,0.0,3.0,64,0.00,,,0.00,Wunderground v.1.15,2013-01-24 08:50:00,
2013-01-24 03:56:00,6.8,-2.8,30.09,NE,50,0.0,3.0,64,0.00,,,0.00,Wunderground v.1.15,2013-01-24 08:56:00,
2013-01-24 04:02:00,6.7,-2.9,30.09,NE,50,0.0,2.0,64,0.00,,,0.00,Wunderground v.1.15,2013-01-24 09:02:00,
2013-01-24 04:08:00,6.7,-2.6,30.09,NE,50,0.0,2.0,65,0.00,,,0.00,Wunderground v.1.15,2013-01-24 09:08:00,
2013-01-24 04:14:00,6.7,-2.6,30.10,NNE,26,0.0,2.0,65,0.00,,,0.00,Wunderground v.1.15,2013-01-24 09:14:00,
2013-01-24 04:20:00,6.7,-2.6,30.10,NNE,26,0.0,2.0,65,0.00,,,0.00,Wunderground v.1.15,2013-01-24 09:20:00,
2013-01-24 04:26:00,6.7,-2.6,30.10,NNE,25,0.0,3.0,65,0.00,,,0.00,Wunderground v.1.15,2013-01-24 09:26:00,
2013-01-24 04:32:00,6.8,-2.5,30.10,ENE,58,1.0,3.0,65,0.00,,,0.00,Wunderground v.1.15,2013-01-24 09:32:00,
2013-01-24 04:38:00,6.9,-2.4,30.10,ENE,64,2.0,3.0,65,0.00,,,0.00,Wunderground v.1.15,2013-01-24 09:38:00,
2013-01-24 04:44:00,7.0,-2.3,30.10,NNW,335,1.0,3.0,65,0.00,,,0.00,Wunderground v.1.15,2013-01-24 09:44:00,
2013-01-24 04:50:00,7.1,-2.5,30.10,NE,53,2.0,4.0,64,0.00,,,0.00,Wunderground v.1.15,2013-01-24 09:50:00,
2013-01-24 04:56:00,7.3,-2.3,30.10,ENE,70,2.0,10.0,64,0.00,,,0.00,Wunderground v.1.15,2013-01-24 09:56:00,
2013-01-24 05:02:00,7.4,-2.2,30.10,NE,54,2.0,10.0,64,0.00,,,0.00,Wunderground v.1.15,2013-01-24 10:02:00,
2013-01-24 05:08:00,7.3,-2.3,30.10,NE,48,2.0,10.0,64,0.00,,,0.00,Wunderground v.1.15,2013-01-24 10:08:00,
2013-01-24 05:14:00,7.3,-2.0,30.10,NE,41,2.0,10.0,65,0.00,,,0.00,Wunderground v.1.15,2013-01-24 10:14:00,
2013-01-24 05:20:00,7.4,-1.9,30.10,NE,55,2.0,10.0,65,0.00,,,0.00,Wunderground v.1.15,2013-01-24 10:20:00,
2013-01-24 05:26:00,7.4,-1.9,30.11,East,85,1.0,10.0,65,0.00,,,0.00,Wunderground v.1.15,2013-01-24 10:26:00,
2013-01-24 05:32:00,7.4,-2.2,30.11,NE,37,1.0,8.0,64,0.00,,,0.00,Wunderground v.1.15,2013-01-24 10:32:00,
2013-01-24 05:38:00,7.4,-1.9,30.11,NE,56,1.0,8.0,65,0.00,,,0.00,Wunderground v.1.15,2013-01-24 10:38:00,
2013-01-24 05:44:00,7.4,-1.9,30.11,NNE,12,2.0,8.0,65,0.00,,,0.00,Wunderground v.1.15,2013-01-24 10:44:00,
2013-01-24 05:50:00,7.4,-1.9,30.11,North,354,2.0,2.0,65,0.00,,,0.00,Wunderground v.1.15,2013-01-24 10:50:00,
2013-01-24 05:56:00,7.4,-2.6,30.11,NE,39,2.0,9.0,63,0.00,,,0.00,Wunderground v.1.15,2013-01-24 10:56:00,
2013-01-24 06:02:00,7.3,-2.7,30.11,NNE,18,3.0,9.0,63,0.00,,,0.00,Wunderground v.1.15,2013-01-24 11:02:00,
2013-01-24 06:08:00,7.1,-2.5,30.11,NE,38,3.0,9.0,64,0.00,,,0.00,Wunderground v.1.15,2013-01-24 11:08:00,
2013-01-24 06:14:00,7.1,-2.5,30.12,NNE,31,2.0,9.0,64,0.00,,,0.00,Wunderground v.1.15,2013-01-24 11:14:00,
2013-01-24 06:20:00,7.0,-2.6,30.12,NNE,18,2.0,9.0,64,0.00,,,0.00,Wunderground v.1.15,2013-01-24 11:20:00,
2013-01-24 06:26:00,7.0,-2.6,30.12,NE,35,2.0,9.0,64,0.00,,,0.00,Wunderground v.1.15,2013-01-24 11:26:00,
2013-01-24 06:32:00,6.9,-2.4,30.12,NE,46,2.0,9.0,65,0.00,,,0.00,Wunderground v.1.15,2013-01-24 11:32:00,
2013-01-24 06:40:00,6.9,-2.1,30.13,North,10,1.0,1.0,66,0.00,,,0.00,Wunderground v.1.15,2013-01-24 11:40:00,
2013-01-24 06:46:00,6.9,-2.1,30.13,NE,44,1.0,9.0,66,0.00,,,0.00,Wunderground v.1.15,2013-01-24 11:46:00,
2013-01-24 06:52:00,6.8,-2.2,30.13,NNE,33,2.0,6.0,66,0.00,,,0.00,Wunderground v.1.15,2013-01-24 11:52:00,
2013-01-24 06:58:00,6.7,-2.3,30.13,NNE,21,1.0,6.0,66,0.00,,,0.00,Wunderground v.1.15,2013-01-24 11:58:00,
2013-01-24 07:04:00,6.7,-2.3,30.13,NE,41,1.0,6.0,66,0.00,,,0.00,Wunderground v.1.15,2013-01-24 12:04:00,
2013-01-24 07:10:00,6.7,-2.6,30.13,NE,34,1.0,6.0,65,0.00,,,0.00,Wunderground v.1.15,2013-01-24 12:10:00,
2013-01-24 07:16:00,6.6,-2.7,30.13,NNE,15,1.0,6.0,65,0.00,,,0.00,Wunderground v.1.15,2013-01-24 12:16:00,
2013-01-24 07:22:00,6.8,-2.8,30.13,NNE,14,1.0,5.0,64,0.00,,,0.00,Wunderground v.1.15,2013-01-24 12:22:00,
2013-01-24 07:28:00,7.0,-2.3,30.13,NW,318,1.0,5.0,65,0.00,,,0.00,Wunderground v.1.15,2013-01-24 12:28:00,
2013-01-24 07:34:00,7.2,-2.8,30.13,NNE,16,2.0,6.0,63,0.00,,,0.00,Wunderground v.1.15,2013-01-24 12:34:00,
2013-01-24 07:40:00,7.4,-2.9,30.13,North,9,2.0,2.0,62,0.00,,,0.00,Wunderground v.1.15,2013-01-24 12:40:00,
2013-01-24 07:46:00,7.5,-2.8,30.13,NNE,31,2.0,5.0,62,0.00,,,0.00,Wunderground v.1.15,2013-01-24 12:46:00,
2013-01-24 07:52:00,7.6,-2.7,30.13,NNE,17,3.0,3.0,62,0.00,,,0.00,Wunderground v.1.15,2013-01-24 12:52:00,
2013-01-24 07:58:00,7.6,-3.1,30.14,NNE,20,3.0,9.0,61,0.00,,,0.00,Wunderground v.1.15,2013-01-24 12:58:00,
2013-01-24 08:04:00,7.7,-3.0,30.14,North,4,4.0,9.0,61,0.00,,,0.00,Wunderground v.1.15,2013-01-24 13:04:00,
2013-01-24 08:10:00,8.2,-2.5,30.14,North,9,3.0,9.0,61,0.00,,,0.00,Wunderground v.1.15,2013-01-24 13:10:00,
2013-01-24 08:16:00,8.6,-2.5,30.14,NNW,345,3.0,9.0,60,0.00,,,0.00,Wunderground v.1.15,2013-01-24 13:16:00,
2013-01-24 08:22:00,8.9,-2.5,30.14,NE,51,6.0,13.0,59,0.00,,,0.00,Wunderground v.1.15,2013-01-24 13:22:00,
2013-01-24 08:28:00,9.1,-2.3,30.13,North,349,6.0,13.0,59,0.00,,,0.00,Wunderground v.1.15,2013-01-24 13:28:00,
2013-01-24 08:34:00,9.5,-2.3,30.13,North,354,5.0,13.0,58,0.00,,,0.00,Wunderground v.1.15,2013-01-24 13:34:00,
2013-01-24 08:40:00,9.8,-2.4,30.14,ENE,58,4.0,4.0,57,0.00,,,0.00,Wunderground v.1.15,2013-01-24 13:40:00,
2013-01-24 08:46:00,10.0,-3.0,30.13,NE,42,4.0,13.0,55,0.00,,,0.00,Wunderground v.1.15,2013-01-24 13:46:00,
2013-01-24 08:52:00,10.4,-2.6,30.13,NNE,31,5.0,15.0,55,0.00,,,0.00,Wunderground v.1.15,2013-01-24 13:52:00,
2013-01-24 08:58:00,10.7,-2.7,30.13,NNE,27,4.0,15.0,54,0.00,,,0.00,Wunderground v.1.15,2013-01-24 13:58:00,
2013-01-24 09:04:00,10.8,-2.6,30.13,NNW,341,5.0,15.0,54,0.00,,,0.00,Wunderground v.1.15,2013-01-24 14:04:00,
2013-01-24 09:10:00,11.4,-2.0,30.13,ENE,75,4.0,4.0,54,0.00,,,0.00,Wunderground v.1.15,2013-01-24 14:10:00,
2013-01-24 09:16:00,11.9,-1.6,30.13,North,8,4.0,15.0,54,0.00,,,0.00,Wunderground v.1.15,2013-01-24 14:16:00,
2013-01-24 09:22:00,12.3,-1.6,30.13,North,8,4.0,15.0,53,0.00,,,0.00,Wunderground v.1.15,2013-01-24 14:22:00,
2013-01-24 09:28:00,12.5,-1.4,30.13,NE,45,5.0,15.0,53,0.00,,,0.00,Wunderground v.1.15,2013-01-24 14:28:00,
2013-01-24 09:34:00,12.6,-2.1,30.13,NNE,13,6.0,13.0,51,0.00,,,0.00,Wunderground v.1.15,2013-01-24 14:34:00,
2013-01-24 09:40:00,12.8,-2.4,30.13,NNE,13,7.0,13.0,50,0.00,,,0.00,Wunderground v.1.15,2013-01-24 14:40:00,
2013-01-24 09:46:00,13.3,-1.9,30.13,North,8,6.0,13.0,50,0.00,,,0.00,Wunderground v.1.15,2013-01-24 14:46:00,
2013-01-24 09:52:00,13.5,-2.1,30.13,NE,53,6.0,19.0,49,0.00,,,0.00,Wunderground v.1.15,2013-01-24 14:52:00,
2013-01-24 09:58:00,13.6,-2.1,30.14,NE,56,7.0,19.0,49,0.00,,,0.00,Wunderground v.1.15,2013-01-24 14:58:00,
2013-01-24 10:04:00,13.7,-2.4,30.13,ESE,111,7.0,19.0,48,0.00,,,0.00,Wunderground v.1.15,2013-01-24 15:04:00,
2013-01-24 10:10:00,14.0,-2.1,30.13,NNE,29,7.0,19.0,48,0.00,,,0.00,Wunderground v.1.15,2013-01-24 15:10:00,
2013-01-24 10:16:00,14.5,-1.7,30.13,ENE,66,6.0,19.0,48,0.00,,,0.00,Wunderground v.1.15,2013-01-24 15:16:00,
2013-01-24 10:22:00,15.2,-1.0,30.13,NNE,31,4.0,6.0,48,0.00,,,0.00,Wunderground v.1.15,2013-01-24 15:22:00,
2013-01-24 10:28:00,15.5,-0.7,30.13,East,79,4.0,20.0,48,0.00,,,0.00,Wunderground v.1.15,2013-01-24 15:28:00,
2013-01-24 10:34:00,15.5,-1.2,30.13,NE,37,5.0,20.0,47,0.00,,,0.00,Wunderground v.1.15,2013-01-24 15:34:00,
2013-01-24 10:40:00,15.6,-1.5,30.13,NE,41,5.0,5.0,46,0.00,,,0.00,Wunderground v.1.15,2013-01-24 15:40:00,
2013-01-24 10:46:00,15.6,-2.0,30.13,NNE,27,5.0,20.0,45,0.00,,,0.00,Wunderground v.1.15,2013-01-24 15:46:00,
2013-01-24 10:52:00,15.5,-1.6,30.12,North,359,6.0,8.0,46,0.00,,,0.00,Wunderground v.1.15,2013-01-24 15:52:00,
2013-01-24 10:58:00,15.8,-1.8,30.13,NE,48,7.0,17.0,45,0.00,,,0.00,Wunderground v.1.15,2013-01-24 15:58:00,
2013-01-24 11:04:00,15.8,-2.3,30.13,East,90,7.0,17.0,44,0.00,,,0.00,Wunderground v.1.15,2013-01-24 16:04:00,
2013-01-24 11:10:00,15.7,-2.4,30.13,NNW,345,8.0,8.0,44,0.00,,,0.00,Wunderground v.1.15,2013-01-24 16:10:00,
2013-01-24 11:16:00,15.7,-2.9,30.12,North,10,9.0,17.0,43,0.00,,,0.00,Wunderground v.1.15,2013-01-24 16:16:00,
2013-01-24 11:22:00,16.2,-2.4,30.12,East,84,8.0,17.0,43,0.00,,,0.00,Wunderground v.1.15,2013-01-24 16:22:00,
2013-01-24 11:28:00,16.5,-2.1,30.12,ENE,75,7.0,22.0,43,0.00,,,0.00,Wunderground v.1.15,2013-01-24 16:28:00,
2013-01-24 11:34:00,16.6,-2.5,30.12,NE,40,5.0,22.0,42,0.00,,,0.00,Wunderground v.1.15,2013-01-24 16:34:00,
2013-01-24 11:40:00,16.6,-2.5,30.12,NE,56,7.0,7.0,42,0.00,,,0.00,Wunderground v.1.15,2013-01-24 16:40:00,
2013-01-24 11:46:00,16.5,-3.7,30.11,ENE,61,9.0,22.0,40,0.00,,,0.00,Wunderground v.1.15,2013-01-24 16:46:00,
2013-01-24 11:52:00,16.9,-3.3,30.11,ESE,102,10.0,24.0,40,0.00,,,0.00,Wunderground v.1.15,2013-01-24 16:52:00,
2013-01-24 11:58:00,17.2,-3.0,30.11,East,83,9.0,24.0,40,0.00,,,0.00,Wunderground v.1.15,2013-01-24 16:58:00,
2013-01-24 12:04:00,17.6,-3.2,30.11,NNE,33,7.0,18.0,39,0.00,,,0.00,Wunderground v.1.15,2013-01-24 17:04:00,
2013-01-24 12:10:00,17.8,-4.1,30.11,NE,38,7.0,24.0,37,0.00,,,0.00,Wunderground v.1.15,2013-01-24 17:10:00,
2013-01-24 12:16:00,17.7,-4.2,30.11,NE,45,8.0,24.0,37,0.00,,,0.00,Wunderground v.1.15,2013-01-24 17:16:00,
2013-01-24 12:22:00,17.7,-3.7,30.10,North,9,9.0,24.0,38,0.00,,,0.00,Wunderground v.1.15,2013-01-24 17:22:00,
2013-01-24 12:28:00,17.9,-3.5,30.10,NNE,14,7.0,24.0,38,0.00,,,0.00,Wunderground v.1.15,2013-01-24 17:28:00,
2013-01-24 12:34:00,18.6,-2.8,30.10,NNE,31,7.0,23.0,38,0.00,,,0.00,Wunderground v.1.15,2013-01-24 17:34:00,
2013-01-24 12:40:00,18.3,-3.7,30.10,NW,320,8.0,8.0,37,0.00,,,0.00,Wunderground v.1.15,2013-01-24 17:40:00,
2013-01-24 12:46:00,18.5,-4.7,30.10,ENE,60,11.0,23.0,35,0.00,,,0.00,Wunderground v.1.15,2013-01-24 17:46:00,
2013-01-24 12:52:00,19.0,-4.2,30.10,NNE,25,9.0,24.0,35,0.00,,,0.00,Wunderground v.1.15,2013-01-24 17:52:00,
2013-01-24 12:58:00,19.7,-3.0,30.10,NE,34,8.0,24.0,36,0.00,,,0.00,Wunderground v.1.15,2013-01-24 17:58:00,
2013-01-24 13:04:00,19.8,-4.7,30.10,North,10,7.0,10.0,33,0.00,,,0.00,Wunderground v.1.15,2013-01-24 18:04:00,
2013-01-24 13:10:00,19.9,-4.6,30.10,NE,47,8.0,24.0,33,0.00,,,0.00,Wunderground v.1.15,2013-01-24 18:10:00,
2013-01-24 13:16:00,19.7,-5.4,30.10,NNE,16,10.0,24.0,32,0.00,,,0.00,Wunderground v.1.15,2013-01-24 18:16:00,
2013-01-24 13:22:00,20.3,-3.7,30.10,SE,127,8.0,25.0,34,0.00,,,0.00,Wunderground v.1.15,2013-01-24 18:22:00,
2013-01-24 13:28:00,20.4,-4.2,30.10,NE,44,7.0,25.0,33,0.00,,,0.00,Wunderground v.1.15,2013-01-24 18:28:00,
2013-01-24 13:34:00,20.5,-3.5,30.10,NNW,345,8.0,25.0,34,0.00,,,0.00,Wunderground v.1.15,2013-01-24 18:34:00,
2013-01-24 13:40:00,20.5,-4.7,30.10,NE,37,9.0,25.0,32,0.00,,,0.00,Wunderground v.1.15,2013-01-24 18:40:00,
2013-01-24 13:46:00,20.6,-4.7,30.10,NNE,21,10.0,25.0,32,0.00,,,0.00,Wunderground v.1.15,2013-01-24 18:46:00,
2013-01-24 13:52:00,21.2,-5.5,30.10,North,8,7.0,25.0,30,0.00,,,0.00,Wunderground v.1.15,2013-01-24 18:52:00,
2013-01-24 13:58:00,21.1,-5.6,30.10,NE,50,8.0,25.0,30,0.00,,,0.00,Wunderground v.1.15,2013-01-24 18:58:00,
2013-01-24 14:04:00,20.8,-5.1,30.11,NNE,20,10.0,25.0,31,0.00,,,0.00,Wunderground v.1.15,2013-01-24 19:04:00,
2013-01-24 14:10:00,20.9,-4.4,30.11,East,82,9.0,25.0,32,0.00,,,0.00,Wunderground v.1.15,2013-01-24 19:10:00,
2013-01-24 14:16:00,20.5,-5.4,30.11,NNE,27,9.0,25.0,31,0.00,,,0.00,Wunderground v.1.15,2013-01-24 19:16:00,
2013-01-24 14:22:00,20.4,-4.8,30.12,ESE,109,9.0,26.0,32,0.00,,,0.00,Wunderground v.1.15,2013-01-24 19:22:00,
2013-01-24 14:28:00,20.4,-4.8,30.12,North,8,9.0,26.0,32,0.00,,,0.00,Wunderground v.1.15,2013-01-24 19:28:00,
2013-01-24 14:34:00,20.9,-3.7,30.12,NE,52,8.0,26.0,33,0.00,,,0.00,Wunderground v.1.15,2013-01-24 19:34:00,
2013-01-24 14:40:00,21.6,-3.1,30.13,NE,38,5.0,5.0,33,0.00,,,0.00,Wunderground v.1.15,2013-01-24 19:40:00,
2013-01-24 14:46:00,21.6,-3.8,30.13,North,359,6.0,26.0,32,0.00,,,0.00,Wunderground v.1.15,2013-01-24 19:46:00,
2013-01-24 14:52:00,21.2,-4.1,30.13,NW,322,7.0,26.0,32,0.00,,,0.00,Wunderground v.1.15,2013-01-24 19:52:00,
2013-01-24 14:58:00,21.3,-4.0,30.13,North,9,6.0,26.0,32,0.00,,,0.00,Wunderground v.1.15,2013-01-24 19:58:00,
2013-01-24 15:04:00,21.1,-4.2,30.13,NNE,27,7.0,18.0,32,0.00,,,0.00,Wunderground v.1.15,2013-01-24 20:04:00,
2013-01-24 15:10:00,21.4,-3.9,30.13,North,354,7.0,7.0,32,0.00,,,0.00,Wunderground v.1.15,2013-01-24 20:10:00,
2013-01-24 15:16:00,21.4,-3.9,30.13,NE,48,7.0,18.0,32,0.00,,,0.00,Wunderground v.1.15,2013-01-24 20:16:00,
2013-01-24 15:22:00,21.3,-4.7,30.13,East,97,8.0,21.0,31,0.00,,,0.00,Wunderground v.1.15,2013-01-24 20:22:00,
2013-01-24 15:28:00,21.0,-5.0,30.13,North,4,9.0,21.0,31,0.00,,,0.00,Wunderground v.1.15,2013-01-24 20:28:00,
2013-01-24 15:34:00,21.0,-5.0,30.12,NE,40,9.0,21.0,31,0.00,,,0.00,Wunderground v.1.15,2013-01-24 20:34:00,
2013-01-24 15:40:00,21.3,-4.7,30.13,NE,35,7.0,7.0,31,0.00,,,0.00,Wunderground v.1.15,2013-01-24 20:40:00,
2013-01-24 15:46:00,21.3,-4.7,30.13,North,359,7.0,21.0,31,0.00,,,0.00,Wunderground v.1.15,2013-01-24 20:46:00,
2013-01-24 15:52:00,21.1,-4.9,30.13,NE,41,7.0,28.0,31,0.00,,,0.00,Wunderground v.1.15,2013-01-24 20:52:00,
2013-01-24 15:58:00,20.9,-5.0,30.13,North,10,9.0,28.0,31,0.00,,,0.00,Wunderground v.1.15,2013-01-24 20:58:00,
2013-01-24 16:04:00,21.1,-4.2,30.13,NE,37,7.0,28.0,32,0.00,,,0.00,Wunderground v.1.15,2013-01-24 21:04:00,
2013-01-24 16:10:00,20.9,-5.7,30.14,South,191,7.0,7.0,30,0.00,,,0.00,Wunderground v.1.15,2013-01-24 21:10:00,
2013-01-24 16:16:00,20.8,-4.5,30.14,North,4,7.0,28.0,32,0.00,,,0.00,Wunderground v.1.15,2013-01-24 21:16:00,
2013-01-24 16:22:00,20.8,-4.5,30.14,NNW,346,5.0,23.0,32,0.00,,,0.00,Wunderground v.1.15,2013-01-24 21:22:00,
2013-01-24 16:28:00,20.6,-6.0,30.15,NNE,27,6.0,23.0,30,0.00,,,0.00,Wunderground v.1.15,2013-01-24 21:28:00,
2013-01-24 16:34:00,20.4,-6.2,30.15,NE,43,8.0,23.0,30,0.00,,,0.00,Wunderground v.1.15,2013-01-24 21:34:00,
2013-01-24 16:40:00,20.3,-6.3,30.15,North,8,6.0,6.0,30,0.00,,,0.00,Wunderground v.1.15,2013-01-24 21:40:00,
2013-01-24 16:46:00,20.2,-5.7,30.15,NNE,30,5.0,23.0,31,0.00,,,0.00,Wunderground v.1.15,2013-01-24 21:46:00,
2013-01-24 16:52:00,20.2,-5.0,30.16,NNW,337,5.0,7.0,32,0.00,,,0.00,Wunderground v.1.15,2013-01-24 21:52:00,
2013-01-24 16:58:00,20.1,-5.1,30.16,North,350,5.0,19.0,32,0.00,,,0.00,Wunderground v.1.15,2013-01-24 21:58:00,
2013-01-24 17:04:00,20.0,-5.8,30.16,WNW,287,4.0,19.0,31,0.00,,,0.00,Wunderground v.1.15,2013-01-24 22:04:00,
2013-01-24 17:10:00,19.9,-5.9,30.17,NE,35,6.0,6.0,31,0.00,,,0.00,Wunderground v.1.15,2013-01-24 22:10:00,
2013-01-24 17:16:00,19.9,-5.3,30.17,NE,54,6.0,19.0,32,0.00,,,0.00,Wunderground v.1.15,2013-01-24 22:16:00,
2013-01-24 17:22:00,19.8,-5.4,30.17,North,10,6.0,19.0,32,0.00,,,0.00,Wunderground v.1.15,2013-01-24 22:22:00,
2013-01-24 17:28:00,19.7,-6.1,30.17,NE,46,6.0,19.0,31,0.00,,,0.00,Wunderground v.1.15,2013-01-24 22:28:00,
2013-01-24 17:34:00,19.6,-6.2,30.18,NNE,15,5.0,19.0,31,0.00,,,0.00,Wunderground v.1.15,2013-01-24 22:34:00,
2013-01-24 17:40:00,19.5,-5.6,30.18,ENE,66,5.0,5.0,32,0.00,,,0.00,Wunderground v.1.15,2013-01-24 22:40:00,
2013-01-24 17:46:00,19.4,-5.7,30.18,NNW,333,5.0,19.0,32,0.00,,,0.00,Wunderground v.1.15,2013-01-24 22:46:00,
2013-01-24 17:52:00,19.4,-5.7,30.18,North,354,6.0,6.0,32,0.00,,,0.00,Wunderground v.1.15,2013-01-24 22:52:00,
2013-01-24 17:58:00,19.3,-5.8,30.18,NW,318,5.0,18.0,32,0.00,,,0.00,Wunderground v.1.15,2013-01-24 22:58:00,
2013-01-24 18:04:00,19.3,-5.8,30.19,East,91,4.0,18.0,32,0.00,,,0.00,Wunderground v.1.15,2013-01-24 23:04:00,
2013-01-24 18:10:00,19.3,-5.8,30.19,North,8,5.0,5.0,32,0.00,,,0.00,Wunderground v.1.15,2013-01-24 23:10:00,
2013-01-24 18:16:00,19.2,-5.9,30.19,NW,322,7.0,14.0,32,0.00,,,0.00,Wunderground v.1.15,2013-01-24 23:16:00,
2013-01-24 18:22:00,19.2,-6.5,30.20,North,8,7.0,20.0,31,0.00,,,0.00,Wunderground v.1.15,2013-01-24 23:22:00,
2013-01-24 18:28:00,19.1,-6.6,30.20,North,8,8.0,20.0,31,0.00,,,0.00,Wunderground v.1.15,2013-01-24 23:28:00,
2013-01-24 18:34:00,19.0,-7.4,30.20,North,349,8.0,20.0,30,0.00,,,0.00,Wunderground v.1.15,2013-01-24 23:34:00,
2013-01-24 18:40:00,19.0,-6.1,30.20,NNW,328,6.0,20.0,32,0.00,,,0.00,Wunderground v.1.15,2013-01-24 23:40:00,
2013-01-24 18:46:00,18.8,-6.9,30.20,ENE,61,5.0,20.0,31,0.00,,,0.00,Wunderground v.1.15,2013-01-24 23:46:00,
2013-01-24 18:52:00,18.7,-7.0,30.20,East,85,6.0,18.0,31,0.00,,,0.00,Wunderground v.1.15,2013-01-24 23:52:00,
2013-01-24 18:58:00,18.6,-7.8,30.20,WSW,241,5.0,18.0,30,0.00,,,0.00,Wunderground v.1.15,2013-01-24 23:58:00,
2013-01-24 19:04:00,18.6,-7.8,30.20,NNE,26,5.0,18.0,30,0.00,,,0.00,Wunderground v.1.15,2013-01-25 00:04:00,
2013-01-24 19:10:00,18.5,-7.2,30.21,NW,322,5.0,5.0,31,0.00,,,0.00,Wunderground v.1.15,2013-01-25 00:10:00,
2013-01-24 19:16:00,18.4,-7.3,30.21,North,354,5.0,18.0,31,0.00,,,0.00,Wunderground v.1.15,2013-01-25 00:16:00,
2013-01-24 19:22:00,18.4,-7.3,30.22,NNW,339,6.0,19.0,31,0.00,,,0.00,Wunderground v.1.15,2013-01-25 00:22:00,
2013-01-24 19:28:00,18.3,-7.3,30.21,NW,323,6.0,19.0,31,0.00,,,0.00,Wunderground v.1.15,2013-01-25 00:28:00,
2013-01-24 19:34:00,18.1,-6.9,30.21,NNW,333,5.0,19.0,32,0.00,,,0.00,Wunderground v.1.15,2013-01-25 00:34:00,
2013-01-24 19:40:00,17.9,-7.0,30.21,NNW,331,4.0,19.0,32,0.00,,,0.00,Wunderground v.1.15,2013-01-25 00:40:00,
2013-01-24 19:46:00,18.0,-6.3,30.21,North,359,7.0,19.0,33,0.00,,,0.00,Wunderground v.1.15,2013-01-25 00:46:00,
2013-01-24 19:52:00,17.9,-7.0,30.22,NW,314,7.0,21.0,32,0.00,,,0.00,Wunderground v.1.15,2013-01-25 00:52:00,
2013-01-24 19:58:00,17.7,-7.2,30.22,NNW,338,7.0,21.0,32,0.00,,,0.00,Wunderground v.1.15,2013-01-25 00:58:00,
2013-01-24 20:04:00,17.6,-6.7,30.22,NNE,29,5.0,21.0,33,0.00,,,0.00,Wunderground v.1.15,2013-01-25 01:04:00,
2013-01-24 20:10:00,17.4,-6.9,30.22,North,10,5.0,21.0,33,0.00,,,0.00,Wunderground v.1.15,2013-01-25 01:10:00,
2013-01-24 20:16:00,17.4,-6.9,30.22,NNW,333,6.0,21.0,33,0.00,,,0.00,Wunderground v.1.15,2013-01-25 01:16:00,
2013-01-24 20:22:00,17.4,-5.6,30.22,NW,320,4.0,21.0,35,0.00,,,0.00,Wunderground v.1.15,2013-01-25 01:22:00,
2013-01-24 20:28:00,17.2,-6.4,30.22,North,354,5.0,21.0,34,0.00,,,0.00,Wunderground v.1.15,2013-01-25 01:28:00,
2013-01-24 20:34:00,17.1,-6.5,30.22,North,4,4.0,17.0,34,0.00,,,0.00,Wunderground v.1.15,2013-01-25 01:34:00,
2013-01-24 20:40:00,17.0,-6.6,30.22,NNW,338,4.0,17.0,34,0.00,,,0.00,Wunderground v.1.15,2013-01-25 01:40:00,
2013-01-24 20:46:00,16.9,-6.1,30.23,North,4,5.0,17.0,35,0.00,,,0.00,Wunderground v.1.15,2013-01-25 01:46:00,
2013-01-24 20:52:00,16.9,-5.5,30.23,NNW,342,4.0,17.0,36,0.00,,,0.00,Wunderground v.1.15,2013-01-25 01:52:00,
2013-01-24 20:58:00,16.9,-5.5,30.23,North,354,4.0,17.0,36,0.00,,,0.00,Wunderground v.1.15,2013-01-25 01:58:00,
2013-01-24 21:04:00,16.7,-5.7,30.23,NNE,16,6.0,17.0,36,0.00,,,0.00,Wunderground v.1.15,2013-01-25 02:04:00,
2013-01-24 21:10:00,16.6,-5.8,30.23,East,80,5.0,17.0,36,0.00,,,0.00,Wunderground v.1.15,2013-01-25 02:10:00,
2013-01-24 21:16:00,16.6,-5.8,30.23,NE,56,5.0,17.0,36,0.00,,,0.00,Wunderground v.1.15,2013-01-25 02:16:00,
2013-01-24 21:22:00,16.5,-5.3,30.23,NW,314,4.0,17.0,37,0.00,,,0.00,Wunderground v.1.15,2013-01-25 02:22:00,
2013-01-24 21:28:00,16.4,-4.8,30.23,SE,128,4.0,17.0,38,0.00,,,0.00,Wunderground v.1.15,2013-01-25 02:28:00,
2013-01-24 21:34:00,16.4,-4.8,30.24,NNE,18,5.0,17.0,38,0.00,,,0.00,Wunderground v.1.15,2013-01-25 02:34:00,
2013-01-24 21:40:00,16.3,-4.4,30.24,NNW,327,4.0,4.0,39,0.00,,,0.00,Wunderground v.1.15,2013-01-25 02:40:00,
2013-01-24 21:46:00,16.2,-3.9,30.24,SSE,158,6.0,17.0,40,0.00,,,0.00,Wunderground v.1.15,2013-01-25 02:46:00,
2013-01-24 21:52:00,16.1,-4.0,30.24,NNE,23,4.0,13.0,40,0.00,,,0.00,Wunderground v.1.15,2013-01-25 02:52:00,
2013-01-24 21:58:00,16.0,-3.6,30.24,North,354,3.0,13.0,41,0.00,,,0.00,Wunderground v.1.15,2013-01-25 02:58:00,
2013-01-24 22:04:00,16.1,-2.5,30.25,NE,36,7.0,13.0,43,0.00,,,0.00,Wunderground v.1.15,2013-01-25 03:04:00,
2013-01-24 22:10:00,15.9,-2.7,30.24,NE,41,6.0,6.0,43,0.00,,,0.00,Wunderground v.1.15,2013-01-25 03:10:00,
2013-01-24 22:16:00,15.9,-2.2,30.25,North,10,5.0,13.0,44,0.00,,,0.00,Wunderground v.1.15,2013-01-25 03:16:00,
2013-01-24 22:22:00,15.7,-1.9,30.25,NNW,334,5.0,15.0,45,0.00,,,0.00,Wunderground v.1.15,2013-01-25 03:22:00,
2013-01-24 22:28:00,15.7,-1.4,30.25,NE,48,3.0,15.0,46,0.00,,,0.00,Wunderground v.1.15,2013-01-25 03:28:00,
2013-01-24 22:34:00,15.7,-1.0,30.25,North,10,5.0,15.0,47,0.00,,,0.00,Wunderground v.1.15,2013-01-25 03:34:00,
2013-01-24 22:40:00,15.6,-0.6,30.25,North,4,5.0,5.0,48,0.00,,,0.00,Wunderground v.1.15,2013-01-25 03:40:00,
2013-01-24 22:46:00,15.6,-0.6,30.25,NNW,327,4.0,15.0,48,0.00,,,0.00,Wunderground v.1.15,2013-01-25 03:46:00,
2013-01-24 22:52:00,15.4,-0.8,30.25,ENE,58,4.0,17.0,48,0.00,,,0.00,Wunderground v.1.15,2013-01-25 03:52:00,
2013-01-24 22:58:00,15.4,-0.4,30.25,NNW,335,3.0,17.0,49,0.00,,,0.00,Wunderground v.1.15,2013-01-25 03:58:00,
2013-01-24 23:04:00,15.3,-0.5,30.26,NNE,33,2.0,17.0,49,0.00,,,0.00,Wunderground v.1.15,2013-01-25 04:04:00,
2013-01-24 23:10:00,15.2,-0.1,30.26,NNE,14,2.0,2.0,50,0.00,,,0.00,Wunderground v.1.15,2013-01-25 04:10:00,
2013-01-24 23:16:00,15.2,-0.1,30.26,NNW,346,2.0,17.0,50,0.00,,,0.00,Wunderground v.1.15,2013-01-25 04:16:00,
2013-01-24 23:22:00,15.2,0.3,30.26,North,350,3.0,17.0,51,0.00,,,0.00,Wunderground v.1.15,2013-01-25 04:22:00,
2013-01-24 23:28:00,15.2,0.3,30.26,NNE,33,3.0,17.0,51,0.00,,,0.00,Wunderground v.1.15,2013-01-25 04:28:00,
2013-01-24 23:34:00,15.1,0.6,30.26,NW,319,3.0,13.0,52,0.00,,,0.00,Wunderground v.1.15,2013-01-25 04:34:00,
2013-01-24 23:40:00,15.2,1.1,30.26,NE,43,4.0,13.0,53,0.00,,,0.00,Wunderground v.1.15,2013-01-25 04:40:00,
2013-01-24 23:46:00,15.3,1.2,30.26,NNW,335,5.0,13.0,53,0.00,,,0.00,Wunderground v.1.15,2013-01-25 04:46:00,
2013-01-24 23:52:00,15.2,1.1,30.26,North,4,4.0,11.0,53,0.00,,,0.00,Wunderground v.1.15,2013-01-25 04:52:00,
2013-01-24 23:58:00,15.2,1.1,30.26,NNE,25,3.0,12.0,53,0.00,,,0.00,Wunderground v.1.15,2013-01-25 04:58:00,